Location: Courcelles
(49.2596°N, 1.7419°E)
Time: 07:16:40
(UTC+00:00)

Cosmos 2082 Rocket - Pass Details

Date: 17 November 2025
Orbit: 834 x 851 km, 71.0° (Epoch: 06 December)

Event Time Altitude Azimuth Distance (km) Brightness Sun altitude
Rises 17:45:20 0° 331° (NNW) 3,393 5.6 -15.6°
Reaches altitude 10° 17:47:47 10° 333° (NNW) 2,455 4.8 -16.0°
Maximum altitude 17:53:26 78° 61° (ENE) 857 2.1 -16.9°
Drops below altitude 10° 17:59:02 10° 148° (SSE) 2,441 4.4 -17.8°
Sets 18:01:28 0° 149° (SSE) 3,373 5.1 -18.2°
